When you browse on this site, cookies collect data to enhance your experience and personalize the content and advertising you see.
Visit our Privacy Policy to learn more. By continuing to use the site, you agree to this use of cookies and data.
  • In Spain
  • List of Countries
  • For 7 days
  • Water Temperature
  • Satellite Maps
  • Weather Map
  • Weather Widgets
  • user-avatar
    Login

    Hourly Weather Newcastle

    Today, 19 February, Tuesday

    Time Temperature Precipitation Wind Pressure Humidity
    00:00 +23°C° 0 mm 4 mps 754 mmHg 74%
    01:00 +22°C° 0 mm 4 mps 754 mmHg 77%
    02:00 +22°C° 0 mm 3 mps 754 mmHg 78%
    03:00 +21°C° 0 mm 3 mps 754 mmHg 79%
    04:00 +20°C° 0 mm 2 mps 754 mmHg 84%
    05:00 +21°C° 0.1 mm 2 mps 754 mmHg 81%
    06:00 +23°C° 0.1 mm 2 mps 754 mmHg 78%
    07:00 +24°C° 0.1 mm 1 mps 754 mmHg 74%
    08:00 +28°C° 0.1 mm 2 mps 754 mmHg 61%
    09:00 +31°C° 0.1 mm 2 mps 754 mmHg 47%
    10:00 +32°C° 0 mm 1 mps 754 mmHg 46%
    11:00 +36°C° 0.1 mm 2 mps 753 mmHg 38%
    12:00 +39°C° 0.1 mm 2 mps 753 mmHg 30%
    13:00 +43°C° 0.1 mm 3 mps 753 mmHg 22%
    14:00 +37°C° 0 mm 4 mps 753 mmHg 41%
    15:00 +32°C° 0 mm 5 mps 753 mmHg 60%
    16:00 +24°C° 0 mm 7 mps 753 mmHg 84%
    17:00 +24°C° 0.2 mm 6 mps 754 mmHg 86%
    18:00 +24°C° 0.2 mm 6 mps 755 mmHg 89%
    19:00 +23°C° 0.2 mm 5 mps 755 mmHg 91%
    20:00 +23°C° 0.1 mm 6 mps 756 mmHg 91%
    21:00 +23°C° 0.1 mm 6 mps 756 mmHg 91%
    22:00 +23°C° 0.1 mm 6 mps 757 mmHg 90%
    23:00 +23°C° 0.2 mm 6 mps 757 mmHg 91%

    Tomorrow, 20 February, Wednesday

    Time Temperature Precipitation Wind Pressure Humidity
    00:00 +23°C° 0.2 mm 5 mps 757 mmHg 92%
    01:00 +23°C° 0.2 mm 5 mps 757 mmHg 93%
    02:00 +23°C° 0.3 mm 5 mps 757 mmHg 94%
    03:00 +23°C° 0.3 mm 5 mps 756 mmHg 95%
    04:00 +23°C° 0.3 mm 4 mps 756 mmHg 96%
    05:00 +23°C° 0.2 mm 4 mps 756 mmHg 96%
    06:00 +23°C° 0.2 mm 4 mps 757 mmHg 96%
    07:00 +23°C° 0.2 mm 4 mps 757 mmHg 96%
    08:00 +23°C° 0.1 mm 4 mps 757 mmHg 93%
    09:00 +25°C° 0.1 mm 4 mps 757 mmHg 90%
    10:00 +25°C° 0.1 mm 4 mps 757 mmHg 87%
    11:00 +25°C° 0.3 mm 4 mps 757 mmHg 86%
    12:00 +25°C° 0.3 mm 5 mps 757 mmHg 85%
    13:00 +25°C° 0.3 mm 5 mps 757 mmHg 84%
    14:00 +25°C° 0.1 mm 5 mps 757 mmHg 85%
    15:00 +23°C° 0.1 mm 6 mps 756 mmHg 86%
    16:00 +23°C° 0.1 mm 6 mps 756 mmHg 87%
    17:00 +23°C° 0.3 mm 6 mps 757 mmHg 88%
    18:00 +23°C° 0.3 mm 5 mps 757 mmHg 90%
    19:00 +22°C° 0.3 mm 5 mps 757 mmHg 92%
    20:00 +22°C° 0.1 mm 5 mps 758 mmHg 93%
    21:00 +22°C° 0.1 mm 5 mps 758 mmHg 93%
    22:00 +22°C° 0.1 mm 5 mps 759 mmHg 94%
    23:00 +22°C° 0.4 mm 5 mps 759 mmHg 94%

    Day after tomorrow, 21 February, Thursday

    Time Temperature Precipitation Wind Pressure Humidity
    00:00 +22°C° 0.4 mm 5 mps 758 mmHg 94%
    01:00 +22°C° 0.4 mm 5 mps 758 mmHg 95%
    02:00 +22°C° 0.5 mm 5 mps 758 mmHg 95%
    03:00 +21°C° 0.5 mm 5 mps 758 mmHg 95%
    04:00 +21°C° 0.5 mm 5 mps 758 mmHg 94%
    05:00 +21°C° 0.3 mm 6 mps 759 mmHg 93%
    06:00 +21°C° 0.3 mm 6 mps 759 mmHg 92%
    07:00 +21°C° 0.3 mm 6 mps 760 mmHg 91%
    08:00 +22°C° 0.1 mm 7 mps 760 mmHg 86%
    09:00 +23°C° 0.1 mm 7 mps 760 mmHg 80%
    10:00 +23°C° 0.1 mm 7 mps 761 mmHg 75%
    11:00 +23°C° 0.1 mm 7 mps 761 mmHg 74%
    12:00 +23°C° 0.1 mm 6 mps 761 mmHg 73%
    13:00 +23°C° 0.1 mm 6 mps 760 mmHg 72%
    14:00 +23°C° 0 mm 6 mps 760 mmHg 69%
    15:00 +24°C° 0 mm 6 mps 760 mmHg 66%
    16:00 +24°C° 0 mm 7 mps 760 mmHg 63%
    17:00 +24°C° 0.1 mm 6 mps 760 mmHg 68%
    18:00 +23°C° 0.1 mm 6 mps 761 mmHg 73%
    19:00 +22°C° 0.1 mm 6 mps 761 mmHg 78%
    20:00 +21°C° 0.2 mm 6 mps 762 mmHg 80%
    21:00 +21°C° 0.2 mm 5 mps 763 mmHg 83%
    22:00 +20°C° 0.2 mm 5 mps 763 mmHg 85%
    23:00 +20°C° 0.2 mm 6 mps 763 mmHg 87%

    22 February, Friday

    Time Temperature Precipitation Wind Pressure Humidity
    00:00 +20°C° 0.2 mm 6 mps 763 mmHg 88%
    01:00 +20°C° 0.2 mm 6 mps 762 mmHg 89%
    02:00 +20°C° 0.1 mm 6 mps 762 mmHg 88%
    03:00 +20°C° 0.1 mm 6 mps 762 mmHg 86%
    04:00 +20°C° 0.1 mm 7 mps 762 mmHg 85%
    05:00 +20°C° 0.1 mm 7 mps 762 mmHg 82%
    06:00 +20°C° 0.1 mm 7 mps 763 mmHg 79%
    07:00 +20°C° 0.1 mm 7 mps 763 mmHg 76%
    08:00 +21°C° 0.1 mm 7 mps 763 mmHg 71%
    09:00 +22°C° 0.1 mm 7 mps 764 mmHg 67%
    10:00 +23°C° 0.1 mm 7 mps 764 mmHg 62%
    11:00 +23°C° 0.1 mm 7 mps 763 mmHg 62%
    12:00 +23°C° 0.1 mm 7 mps 763 mmHg 61%
    13:00 +23°C° 0.1 mm 8 mps 763 mmHg 61%
    14:00 +23°C° 0.2 mm 8 mps 763 mmHg 63%
    15:00 +23°C° 0.2 mm 7 mps 763 mmHg 66%
    16:00 +22°C° 0.2 mm 7 mps 763 mmHg 68%
    17:00 +22°C° 0.1 mm 7 mps 763 mmHg 70%
    18:00 +21°C° 0.1 mm 7 mps 764 mmHg 72%
    19:00 +20°C° 0.1 mm 6 mps 764 mmHg 74%
    20:00 +20°C° 0.1 mm 6 mps 764 mmHg 75%
    21:00 +20°C° 0.1 mm 6 mps 765 mmHg 76%
    22:00 +20°C° 0.1 mm 6 mps 765 mmHg 77%
    23:00 +20°C° 0.1 mm 6 mps 765 mmHg 78%

    23 February, Saturday

    Time Temperature Precipitation Wind Pressure Humidity
    00:00 +19°C° 0.1 mm 6 mps 764 mmHg 79%
    01:00 +19°C° 0.1 mm 6 mps 764 mmHg 80%
    02:00 +19°C° 0.1 mm 6 mps 764 mmHg 80%
    03:00 +19°C° 0.1 mm 6 mps 764 mmHg 80%
    04:00 +19°C° 0.1 mm 6 mps 763 mmHg 80%
    05:00 +20°C° 0.1 mm 6 mps 764 mmHg 79%
    06:00 +20°C° 0.1 mm 6 mps 764 mmHg 78%
    07:00 +20°C° 0.1 mm 6 mps 765 mmHg 78%
    08:00 +22°C° 0.1 mm 7 mps 765 mmHg 70%
    09:00 +23°C° 0.1 mm 7 mps 765 mmHg 63%
    10:00 +24°C° 0.1 mm 7 mps 766 mmHg 56%
    11:00 +24°C° 0.1 mm 7 mps 766 mmHg 57%
    12:00 +24°C° 0.1 mm 7 mps 765 mmHg 59%
    13:00 +24°C° 0.1 mm 7 mps 765 mmHg 60%
    14:00 +24°C° 0.1 mm 7 mps 765 mmHg 61%
    15:00 +23°C° 0.1 mm 7 mps 765 mmHg 63%
    16:00 +23°C° 0.1 mm 7 mps 765 mmHg 65%
    17:00 +22°C° 0.1 mm 7 mps 766 mmHg 68%
    18:00 +22°C° 0.1 mm 6 mps 766 mmHg 71%
    19:00 +21°C° 0.1 mm 6 mps 767 mmHg 74%
    20:00 +21°C° 0.1 mm 6 mps 767 mmHg 74%
    21:00 +21°C° 0.1 mm 6 mps 767 mmHg 74%
    22:00 +21°C° 0.1 mm 6 mps 768 mmHg 74%
    23:00 +20°C° 0.1 mm 6 mps 767 mmHg 75%

    24 February, Sunday

    Time Temperature Precipitation Wind Pressure Humidity
    00:00 +20°C° 0.1 mm 5 mps 767 mmHg 75%
    01:00 +20°C° 0.1 mm 5 mps 767 mmHg 76%
    02:00 +20°C° 0.1 mm 6 mps 767 mmHg 76%
    03:00 +20°C° 0.1 mm 6 mps 767 mmHg 76%
    04:00 +20°C° 0.1 mm 6 mps 767 mmHg 76%
    05:00 +20°C° 0.1 mm 6 mps 767 mmHg 76%
    06:00 +20°C° 0.1 mm 6 mps 768 mmHg 76%
    07:00 +20°C° 0.1 mm 6 mps 768 mmHg 75%
    08:00 +21°C° 0.1 mm 6 mps 768 mmHg 71%
    09:00 +22°C° 0.1 mm 6 mps 769 mmHg 67%
    10:00 +22°C° 0.1 mm 6 mps 769 mmHg 63%
    11:00 +23°C° 0.1 mm 6 mps 769 mmHg 62%
    12:00 +23°C° 0.1 mm 6 mps 769 mmHg 62%
    13:00 +23°C° 0.1 mm 6 mps 768 mmHg 61%
    14:00 +23°C° 0.1 mm 6 mps 768 mmHg 62%
    15:00 +22°C° 0.1 mm 6 mps 768 mmHg 63%
    16:00 +22°C° 0.1 mm 6 mps 768 mmHg 64%
    17:00 +22°C° 0.1 mm 6 mps 769 mmHg 68%
    18:00 +21°C° 0.1 mm 6 mps 769 mmHg 71%
    19:00 +20°C° 0.1 mm 5 mps 770 mmHg 75%
    20:00 +20°C° 0.1 mm 5 mps 770 mmHg 75%
    21:00 +20°C° 0.1 mm 5 mps 770 mmHg 76%
    22:00 +20°C° 0.1 mm 5 mps 770 mmHg 76%
    23:00 +19°C° 0.1 mm 5 mps 770 mmHg 77%
    Show more